Screenshot 2020-03-10 at 16.31.56

Aviation Academy

Online Aviation Academy is a modern learning system, bundled with key enterprise functionality ranging from skill-gap analysis and branch management to tailor-made reports. Our unique TCExam is a system for electronic exams (also know as CBA – Computer-Based Assessment, CBT – Computer-Based Testing or e-exam) that enables educators and trainers to  deliver, and report on quizzes, tests and exams.

Koos Myburgh’s book has become a popular training tool for many helicopter pilots starting out on their aviation path. The book is detailed and informative.

About the author

He joined the South African Air Force as a pupil pilot in 1979. Completed training on Harvards and the Alouette III; received his Wings in 1981.
During his 18 year Air Force career he also flew the Puma, Oryx (Super Puma) and the Dauphin. He gave instruction on all the types. He qualified as a NVIS instructor, as well.
After his resignation, he was employed as CFI at Helicopters Unlimited and later as Director Training at the Starlite Aviation Group.
Since his qualification as Instructor during 1988, he gathered 8000 hours of instruction and a total of 12600 hours.
He holds ratings on 32 types/variants of aircraft and was appointed as a SACAA Designated Flight Examiner in 2012.

ONLINE LEARNING

Don’t just read about it, Learn about it…

Let us help you reach the sky.

Durban FALE METAR & TAF

FALE 101600Z 12003KT CAVOK 16/09 Q1020 NOSIG

TAF FALE 101600Z 1018/1124 VRB02KT CAVOK TX25/1112Z TN10/1104Z BECMG 1021/1023 33005KT BECMG 1107/1109 03015KT FM111800 21010KT 9999 SCT025

George FAGG METAR & TAF

FAGG 101700Z 10009KT CAVOK 12/09 Q1017

TAF TAF FAGG 101600Z 1018/1118 07010KT CAVOK TX18/1112Z TN09/1106Z BECMG 1021/1023 VRB03KT BECMG 1101/1103 32010KT BECMG 1108/1110 26015KT FM110900 26015KT 9999 BKN035

error: NO! Content is protected !!
Scroll to Top